• In Russia
  • List of Countries
  • For 7 days
  • Water Temperature
  • Weather Map
  • Weather Widgets
  • user-avatar
    Login

    Hourly Weather Kosow

    Today, 19 October, Saturday

    Time Temperature Precipitation Wind Pressure Humidity
    00:00 +12°C° 0 mm 3 mps 742 mmHg 82%
    01:00 +12°C° 0 mm 3 mps 742 mmHg 84%
    02:00 +11°C° 0 mm 3 mps 742 mmHg 85%
    03:00 +11°C° 0 mm 3 mps 742 mmHg 86%
    04:00 +11°C° 0 mm 3 mps 743 mmHg 87%
    05:00 +12°C° 0 mm 2 mps 743 mmHg 86%
    06:00 +12°C° 0 mm 2 mps 743 mmHg 85%
    07:00 +12°C° 0 mm 2 mps 743 mmHg 83%
    08:00 +13°C° 0 mm 1 mps 743 mmHg 76%
    09:00 +15°C° 0 mm 1 mps 743 mmHg 70%
    10:00 +16°C° 0 mm 1 mps 743 mmHg 64%
    11:00 +18°C° 0 mm 1 mps 743 mmHg 61%
    12:00 +18°C° 0 mm 2 mps 743 mmHg 59%
    13:00 +18°C° 0 mm 2 mps 743 mmHg 56%
    14:00 +18°C° 0 mm 2 mps 742 mmHg 59%
    15:00 +17°C° 0 mm 2 mps 742 mmHg 62%
    16:00 +17°C° 0 mm 2 mps 742 mmHg 65%
    17:00 +16°C° 0 mm 2 mps 742 mmHg 68%
    18:00 +15°C° 0 mm 1 mps 743 mmHg 72%
    19:00 +15°C° 0 mm 1 mps 743 mmHg 75%
    20:00 +14°C° 0 mm 2 mps 743 mmHg 77%
    21:00 +14°C° 0 mm 2 mps 743 mmHg 78%
    22:00 +14°C° 0 mm 2 mps 742 mmHg 80%
    23:00 +14°C° 0 mm 2 mps 743 mmHg 80%

    Tomorrow, 20 October, Sunday

    Time Temperature Precipitation Wind Pressure Humidity
    00:00 +14°C° 0 mm 2 mps 743 mmHg 81%
    01:00 +12°C° 0 mm 3 mps 743 mmHg 81%
    02:00 +12°C° 0 mm 3 mps 743 mmHg 82%
    03:00 +12°C° 0 mm 3 mps 743 mmHg 83%
    04:00 +12°C° 0 mm 3 mps 743 mmHg 83%
    05:00 +12°C° 0 mm 3 mps 743 mmHg 83%
    06:00 +12°C° 0 mm 3 mps 743 mmHg 82%
    07:00 +13°C° 0 mm 2 mps 743 mmHg 82%
    08:00 +14°C° 0 mm 3 mps 743 mmHg 75%
    09:00 +17°C° 0 mm 3 mps 743 mmHg 67%
    10:00 +19°C° 0 mm 3 mps 743 mmHg 60%
    11:00 +20°C° 0 mm 3 mps 743 mmHg 56%
    12:00 +21°C° 0 mm 3 mps 743 mmHg 53%
    13:00 +23°C° 0 mm 2 mps 743 mmHg 50%
    14:00 +21°C° 0 mm 2 mps 743 mmHg 53%
    15:00 +20°C° 0 mm 2 mps 743 mmHg 57%
    16:00 +19°C° 0 mm 2 mps 743 mmHg 60%
    17:00 +18°C° 0 mm 2 mps 743 mmHg 64%
    18:00 +17°C° 0 mm 2 mps 743 mmHg 67%
    19:00 +16°C° 0 mm 2 mps 744 mmHg 71%
    20:00 +16°C° 0 mm 2 mps 744 mmHg 72%
    21:00 +16°C° 0 mm 2 mps 744 mmHg 74%
    22:00 +16°C° 0 mm 2 mps 744 mmHg 75%
    23:00 +15°C° 0 mm 2 mps 744 mmHg 76%

    Day after tomorrow, 21 October, Monday

    Time Temperature Precipitation Wind Pressure Humidity
    00:00 +15°C° 0 mm 2 mps 744 mmHg 77%
    01:00 +15°C° 0 mm 2 mps 744 mmHg 77%
    02:00 +15°C° 0 mm 2 mps 744 mmHg 78%
    03:00 +14°C° 0 mm 2 mps 744 mmHg 79%
    04:00 +14°C° 0 mm 2 mps 744 mmHg 80%
    05:00 +14°C° 0 mm 2 mps 744 mmHg 80%
    06:00 +14°C° 0 mm 2 mps 744 mmHg 80%
    07:00 +14°C° 0 mm 1 mps 745 mmHg 81%
    08:00 +16°C° 0 mm 1 mps 745 mmHg 73%
    09:00 +19°C° 0 mm 1 mps 745 mmHg 66%
    10:00 +20°C° 0 mm 1 mps 745 mmHg 59%
    11:00 +21°C° 0 mm 1 mps 746 mmHg 56%
    12:00 +22°C° 0 mm 1 mps 746 mmHg 53%
    13:00 +23°C° 0 mm 1 mps 746 mmHg 51%
    14:00 +22°C° 0 mm 1 mps 746 mmHg 54%
    15:00 +21°C° 0 mm 1 mps 746 mmHg 58%
    16:00 +21°C° 0 mm 1 mps 746 mmHg 61%
    17:00 +20°C° 0 mm 1 mps 746 mmHg 65%
    18:00 +19°C° 0 mm 1 mps 747 mmHg 69%
    19:00 +16°C° 0 mm 2 mps 747 mmHg 73%
    20:00 +16°C° 0 mm 2 mps 747 mmHg 75%
    21:00 +16°C° 0 mm 2 mps 747 mmHg 77%
    22:00 +15°C° 0 mm 2 mps 747 mmHg 79%
    23:00 +15°C° 0 mm 1 mps 747 mmHg 80%

    22 October, Tuesday

    Time Temperature Precipitation Wind Pressure Humidity
    00:00 +15°C° 0 mm 1 mps 747 mmHg 82%
    01:00 +14°C° 0 mm 1 mps 747 mmHg 83%
    02:00 +14°C° 0 mm 1 mps 747 mmHg 84%
    03:00 +14°C° 0 mm 1 mps 747 mmHg 85%
    04:00 +12°C° 0 mm 0 mps 748 mmHg 85%
    05:00 +13°C° 0 mm 1 mps 748 mmHg 85%
    06:00 +13°C° 0 mm 1 mps 748 mmHg 86%
    07:00 +13°C° 0 mm 1 mps 748 mmHg 86%
    08:00 +15°C° 0 mm 1 mps 748 mmHg 79%
    09:00 +18°C° 0 mm 1 mps 748 mmHg 72%
    10:00 +19°C° 0 mm 1 mps 749 mmHg 65%
    11:00 +20°C° 0 mm 1 mps 749 mmHg 61%
    12:00 +21°C° 0 mm 1 mps 748 mmHg 57%
    13:00 +22°C° 0 mm 1 mps 748 mmHg 54%
    14:00 +21°C° 0 mm 1 mps 748 mmHg 57%
    15:00 +19°C° 0 mm 0 mps 748 mmHg 60%
    16:00 +18°C° 0 mm 0 mps 748 mmHg 64%
    17:00 +17°C° 0 mm 0 mps 748 mmHg 67%
    18:00 +16°C° 0 mm 0 mps 748 mmHg 70%
    19:00 +15°C° 0 mm 0 mps 748 mmHg 73%
    20:00 +16°C° 0 mm 1 mps 748 mmHg 75%
    21:00 +15°C° 0 mm 1 mps 748 mmHg 77%
    22:00 +15°C° 0 mm 1 mps 748 mmHg 79%
    23:00 +15°C° 0 mm 1 mps 748 mmHg 82%

    23 October, Wednesday

    Time Temperature Precipitation Wind Pressure Humidity
    00:00 +14°C° 0 mm 1 mps 747 mmHg 84%
    01:00 +14°C° 0 mm 1 mps 747 mmHg 87%
    02:00 +14°C° 0 mm 1 mps 747 mmHg 88%
    03:00 +13°C° 0 mm 1 mps 747 mmHg 89%
    04:00 +13°C° 0 mm 1 mps 747 mmHg 91%
    05:00 +13°C° 0 mm 1 mps 747 mmHg 91%
    06:00 +13°C° 0 mm 1 mps 747 mmHg 91%
    07:00 +13°C° 0 mm 1 mps 747 mmHg 92%
    08:00 +15°C° 0 mm 1 mps 747 mmHg 85%
    09:00 +16°C° 0 mm 1 mps 747 mmHg 78%
    10:00 +19°C° 0 mm 1 mps 747 mmHg 71%
    11:00 +20°C° 0 mm 1 mps 747 mmHg 67%
    12:00 +21°C° 0 mm 1 mps 747 mmHg 63%
    13:00 +22°C° 0 mm 1 mps 746 mmHg 60%
    14:00 +21°C° 0 mm 1 mps 746 mmHg 62%
    15:00 +20°C° 0 mm 1 mps 746 mmHg 65%
    16:00 +18°C° 0 mm 0 mps 746 mmHg 68%
    17:00 +19°C° 0 mm 1 mps 746 mmHg 72%
    18:00 +18°C° 0 mm 1 mps 746 mmHg 77%
    19:00 +16°C° 0 mm 2 mps 746 mmHg 82%
    20:00 +15°C° 0 mm 2 mps 746 mmHg 84%
    21:00 +15°C° 0 mm 2 mps 746 mmHg 87%
    22:00 +14°C° 0 mm 2 mps 746 mmHg 89%
    23:00 +14°C° 0 mm 2 mps 746 mmHg 90%

    24 October, Thursday

    Time Temperature Precipitation Wind Pressure Humidity
    00:00 +14°C° 0 mm 2 mps 746 mmHg 91%
    01:00 +13°C° 0 mm 2 mps 746 mmHg 92%
    02:00 +13°C° 0 mm 2 mps 745 mmHg 92%
    03:00 +13°C° 0 mm 2 mps 745 mmHg 92%
    04:00 +13°C° 0 mm 2 mps 745 mmHg 92%
    05:00 +13°C° 0 mm 2 mps 745 mmHg 91%
    06:00 +13°C° 0 mm 2 mps 745 mmHg 90%
    07:00 +13°C° 0 mm 2 mps 744 mmHg 89%
    08:00 +15°C° 0 mm 2 mps 744 mmHg 80%
    09:00 +16°C° 0 mm 2 mps 744 mmHg 71%
    10:00 +18°C° 0 mm 3 mps 744 mmHg 61%
    11:00 +20°C° 0 mm 3 mps 744 mmHg 57%
    12:00 +21°C° 0 mm 3 mps 744 mmHg 53%
    13:00 +22°C° 0 mm 3 mps 744 mmHg 49%
    14:00 +21°C° 0 mm 3 mps 744 mmHg 53%
    15:00 +20°C° 0 mm 3 mps 743 mmHg 58%
    16:00 +19°C° 0 mm 2 mps 743 mmHg 62%
    17:00 +18°C° 0 mm 2 mps 743 mmHg 65%
    18:00 +17°C° 0 mm 2 mps 743 mmHg 68%
    19:00 +16°C° 0 mm 1 mps 743 mmHg 71%
    20:00 +15°C° 0 mm 1 mps 743 mmHg 72%
    21:00 +15°C° 0 mm 1 mps 743 mmHg 72%
    22:00 +15°C° 0 mm 1 mps 743 mmHg 72%
    23:00 +15°C° 0 mm 1 mps 743 mmHg 71%
    Show more